Погода Красная Гора

Погода Красная Гора : погода сейчас, прогноз погоды и архив. Всё, что Вы хотите узнать о погоде Красная Гора!

Хотите узнать прогноз погоды Красная Гора? Тогда Вам сюда: Погода Красная Гора

Поиск расширенной информации на нашем сайте:

Другие новости

Новости СМИ2

Главная страница сайта

Новости сайта

03.07.2017

Напоминаем, что на нашем специализированном сайте Метеоцентр.Азия вы можете получить высокодетализированные автоматические прогнозы погоды по пунктам России, СНГ и мира в авиационном формате (включающие направление и скорость ветра, видимость, явления погоды, количество и форму облачности, нижнюю и верхнюю границу облачности).


Погода Красная Гора - сегодня

Время (UTC), дата Ветер
(°,м/с) 
Видим.   Явления Облачность Т
(°С)
Тd
(°С)
f(%) Тe
(°С)
Pmin
(гПа)
dP
(гПа)
Po
(мм)
O2
(г/м3)
Тmin Tmax R s Состояние
почвы
21 14.07.18 270 (З) 4000 м  дымка  ясно 
+15.6 +14.6 94 +25  1007.2  0.4  742  280           
09 15.07.18 360 (С) 10 км    4/4 1000 м 
[Cu med, cong]
+24.5 +16.2 60 +36  1006.6  0.2  742  271           
12 15.07.18 050 (СВ) 10 км    8/4 600 м кучево-дожд., средняя 
[Cb cap|Ac trans]
+24.4 +15.1 56 +34  1005.8  -0.8  742  271           
21 15.07.18 360 (С) 4000 м  дымка  3/0 средняя 
[Ac trans]
+17.5 +16.5 94 +31  1007.1  0.3  742  277           
09 16.07.18 350 (С) 4000 м  ливневой дождь  10/8 600 м кучево-дожд., средняя 
[Cb cap|As op]
+18.7 +17.4 92 +33  1006.2  -0.7  742  276           
21 16.07.18 360 (С) 4000 м  дымка  10/4 600 м кучево-дожд., средняя 
[Cb cap|As op]
+18.1 +17.1 94 +32  1004.8  741  276           
09 17.07.18 040 (СВ) 10 км    10/4 600 м кучево-дожд., средняя 
[Cb cap|As op]
+23.7 +19.2 76 +41  1002.3  0.1  739  269           
21 17.07.18 360 (С) 4000 м  дымка  10/4 600 м кучево-дожд., средняя 
[Cb cap|As op]
+18.8 +17.7 93 +33  1001.9  -0.7  739  274           
09 18.07.18 030 (СВ) 10 км    6/6 600 м 
[Cu med, cong]
+25.6 +19.1 67 +43  1001.5  -0.1  739  268           
12 18.07.18 010 (С) 10 км    8/6 600 м средняя 
[Cu med, cong|Ac trans]
+27.6 +17.9 56 +42  1000.8  -0.5  738  266           
18 18.07.18 320 (СЗ) 2{10}  10 км  {гроза, ливн. осадки}  4/0 средняя 
[Ac trans]
+20.3 +18.4 89 +36  1002  0.5  739  273    +28  0.9     
21 18.07.18 320 (СЗ) 4000 м  дымка  ясно 
+19 +17.5 91 +34  1001.6  -0.4  738  274           
09 19.07.18 290 (З) 10 км    10/6 600 м кучево-дожд., средняя 
[Cb cap|As op]
+22.1 +17.8 77 +37  1001.5  739  271           
12 19.07.18 320 (СЗ) 10 км    9/4 600 м кучево-дожд., средняя 
[Cb cap|Ac trans]
+23.3 +16.3 65 +35  1001.4  -0.1  738  271           
15 19.07.18 330 (СЗ) 10 км    8/4 600 м кучево-дожд., средняя 
[Cb cap|Ac trans]
+24.1 +17.5 67 +38  1000.9  -0.4  738  269           
21 19.07.18 330 (СЗ) 4000 м  дымка{гроза, ливн. осадки}  8/4 600 м кучево-дожд., средняя 
[Cb cap|Ac trans]
+18.3 +18.1 99 +34  1002  0.1  739  275           
09 20.07.18 330 (СЗ) 10 км    9/8 600 м кучево-дожд., средняя 
[Cb cap|Ac trans]
+22.6 +18.5 78 +38  1002.6  0.6  739  271           
15 20.07.18 320 (СЗ) 10 км    8/4 600 м кучево-дожд., средняя 
[Cb cap|Ac trans]
+24.4 +18.2 68 +40  1002.3  739  269      0.3     
21 20.07.18 350 (С) 4000 м  слаб. ливневой дождь  10/8 600 м кучево-дожд., средняя 
[Cb cap|As op]
+20.5 +19.1 92 +38  1004.1  0.6  740  273           
09 21.07.18 050 (СВ) 10 км  {ливн. осадки}  6/6 1000 м 
[Cu med, cong]
+24 +18.3 70 +39  1004.6  0.4  741  270           
21 21.07.18 300 (СЗ) 4000 м  дымка  9/4 600 м кучево-дожд., средняя 
[Cb cap|Ac trans]
+18.8 +18 95 +35  1005.3  -0.3  741  275           
09 22.07.18 350 (С) 10 км    9/4 600 м кучево-дожд., средняя 
[Cb cap|Ac trans]
+21.1 +18.6 86 +37  1005.3  741  273           
12 22.07.18 020 (С) 10 км    8/6 1000 м средняя 
[Cu med, cong|Ac trans]
+24.8 +19.2 71 +42  1004.3  -0.8  741  269           
21 22.07.18 360 (С) 4000 м  слаб. ливневой дождь{гроза}  10/8 600 м кучево-дожд., средняя 
[Cb cap|As op]
+20.3 +18.9 92 +37  1005  0.7  741  273           
09 23.07.18 040 (СВ) 10 км    8/6 600 м кучево-дожд., средняя 
[Cb cap|Ac trans]
+22.3 +18 77 +37  1005.7  0.1  742  272           
Время (UTC), дата Ветер
(°,м/с) 
Видим.   Явления Облачность Т
(°С)
Тd
(°С)
f(%) Тe
(°С)
Pmin
(гПа)
dP
(гПа)
Po
(мм)
O2
(г/м3)
Тmin Tmax R s Состояние
почвы

Для получения пояснительной информации подведите курсор к названию столбца.

ПОГОДА Красная Гора - архив

Всё, что Вы хотите узнать о погоде Красная Гора - удобно и подробно!

Выберите нужную дату (начиная с 1 января 2015* года) и нажмите кнопку "Найти".
Будут отображены архивные сводки погоды по пункту Красная Гора, начиная с указанной даты.


Отображать данные в формате CSV (для использования в таблицах Excel)


Внимание! Наш архив погоды предназначен исключительно для личного некоммерческого использования в познавательных целях. Если Вам необходимы официальные справки о состоянии погоды (для производственных, юридических, коммерческих и т.п. целей), обращайтесь в органы Росгидромета.

*Примечание: данная дата относится к архиву по метеостанциям СССР (Россия, СНГ, Балтия).
Архив по метеостанциям Зарубежной Европы и Азии (кроме Китая) хранится 10 дней, по другим регионам земного шара (Китай, Африка, Америка, Австралия, Океания) - 1 день.

Красная Гора - район местоположения метеостанции


Название, широта, долгота, высота метеостанции:
Красная Гора 53°ш. 31.6°д. 148 м над ур. моря [Российская Федерация]

Дополнительная информация

В oтличие oт бoльшинства пoгoдных сайтoв мы публикуем пoдрoбную метеoинфoрмацию в детальнoм прoфессиoнальнoм фoрмате.

Характеристики температуры и влажнoсти вoздуха измеряются на высoте 2 м в тени вдали oт зданий и деревьев.
Скoрoсть ветра измеряется на высoте 10 м (на урoвне рoста челoвека скoрoсть ветра ниже в 1.5-2 раза). Если метеoстанция нахoдится в гoрoде или в лесу, тo скoрoсть ветра занижена на 2-4 м/с пo сравнению с oткрытым местoм. Скoрoсть ветра над акватoриями крупных рек и oзёр, а также на вершинах хoлмoв на 2-5 м/с выше, чем в oбычных услoвиях.
Атмoсфернoе давление в разных тoчках местнoсти мoжет значительнo oтличаться oт давления на метеoстанции, в зависимoсти oт услoвий рельефа (при пoдъёме на 10 м давление пoнижается примернo на 1 мм рт.ст.).